2017-071S

Last updated on Wed Jan 17 2018 00:19:53 GMT+0000 (Coordinated Universal Time)

1 43053U 17071S 18016.75439781 .00003139 00000-0 93008-4 0 9991 2 43053 51.6402 58.6405 0000841 203.3107 156.7839 15.37987652 6268
UTC large
Height (km)
Speed (km/s)
/
Latitude / Longitude
Inclination (degrees)
Orbital Period (minutes)
Azimuth
Elevation
Range (km)
Doppler Factor

Next 0 passes for location: London (51.5072 / 0.1276)

Sorry there are no passes over London.
2017-071S